Location: Unspecified
(41.5000°N, 0.0000°E)
Time: 22:09:11
(UTC+00:00)

Vanguard 3 - Pass Details

Date: 27 June 2019
Orbit: 507 x 3264 km, 33.4° (Epoch: 17 July)

Event Time Altitude Azimuth Distance (km) Brightness Sun altitude
Rises 07:53:16 0° 214° (SW) 7,221 11.7 35.5°
Reaches altitude 10° 07:59:03 10° 206° (SSW) 6,142 11.5 36.6°
Maximum altitude 08:14:30 33° 152° (SSE) 3,877 11.3 39.5°
Drops below altitude 10° 08:25:44 10° 96° (E) 4,487 12.1 41.6°
Sets 08:29:07 0° 86° (E) 5,124 12.1 42.2°
